COSMOS 1275 DEB, 42189

Orbit data source: Space-Track

COSMOS 1275 DEB, 42189 is space debris in LEO originally from a launch on Thu, 04 Jun 1981 UTC launched from the Plesetsk Missile And Space Complex (PKMTR). Debris objects in space refer to the collection of defunct objects orbiting the Earth. Examples of debris include non-operational satellites, rocket bodies, and fragments generated from explosions, collisions, or faulty payload assembly.

Loading next visibility...
COSMOS 1275 DEB details
Identifier
42189, 1981-053TD
Orbit
LEO
Last TLE update3 days ago
Origin
Flag of CISGUKOS (CIS)
ManufacturerUnknown
MissionSpacecraft
Bus & MotorUnknown
MassUnknown
Launch date (UTC)
1981-06-04 (44 years ago)
Launch vehicleUnknown
Launch site
Plesetsk Missile And Space Complex (PKMTR)
Object type
Payload
Rocket body
Debris
Shape & HBRUnknown
Radar Cross SectionSmall (<0.1 m²)

Expand to show TLE details & history

TLE from 3 days ago
0 COSMOS 1275 DEB
1 42189U 81053TD  24343.69114693  .00001732  00000-0  18280-2 0  9990
2 42189  83.0198 337.3900 0124340 147.4114 213.4793 13.70745958532835
Epoch: 2024-12-08T16:35Z
Definitive object data (Epoch: 2024-12-08T16:35:15.094Z)
Latitude-0.00011°
Longitude10.65184°
Altitude1,076.634 km
Speed7.276 km/s
True Right ascension22h 29m 33s
True Declination0° 00' 00"
Sunlit
Object was in daylight at TLE epoch
Visualization TLE readout
Latitude-13.00453°
Longitude-170.10108°
Altitude948.368 km
Speed7.404 km/s
Apparent Right ascension09h 51m 23s
Apparent Declination-25° 45' 47"
Sunlit
Object is in daylight
Visualization observer readout
Local Sidereal Time20:59:54
Azimuth318.906° NNW
Elevation-72.231°
Doppler factor1
Orbital elements
Apogee altitude1,085.711 km
Perigee altitude902.38 km
Semi-major axis7,372.182 km
Eccentricity0.012434
Inclination83.0198°
RAAN337.39°
Arg. of periapsis147.4114°
True anomaly212.7034°
Mean anomaly213.4793°
Eccentric anomaly213.09035°
Mean motion3.42885 °/min
BSTAR0.001828
Orbital period104.99 mins
Loading maneuver chart data...
Loading historical data...
Loading historical data...
Loading historical data...
Loading historical data...
Loading historical data...
Loading historical data...
Loading historical data...

COSMOS 1275 DEB Visibility forecast

Observer location: undefined°, undefined

Span
Click to sort rows by Start time (UTC) header in descending order
Start Az.
Max El. time (UTC)
Max El. Az.
Max El.
End time (UTC)
End Az.
10 mins2024-12-11 23:31:51.833Z154.59° SSE2024-12-11 23:36:51.833Z93.701° ESE33.821°2024-12-11 23:41:51.833Z25.351° NE
9 mins2024-12-12 01:18:51.833Z236.085° WSW2024-12-12 01:22:51.833Z284.744° WNW25.843°2024-12-12 01:27:51.833Z342.528° N
9 mins2024-12-12 10:31:51.833Z19.3° NNE2024-12-12 10:35:51.833Z74.54° E28.154°2024-12-12 10:40:51.833Z136.79° SSE
8 mins2024-12-12 12:17:51.833Z325.034° NNW2024-12-12 12:21:51.833Z267.717° W27.684°2024-12-12 12:25:51.833Z216.587° SW
|